Wind_Speed
18 9 12 11 8 20 13 26 31 31 34 36 38 39 37 40 51 47 53 59 60 61 65 45 38 29 21 14 11 6 6 4 6 8 7 8 5 5 6 6 6 8 9
20 15 17 19 19 23 28 28 34 33 36 29 39 40 40 46 55 57 55 61 65 61 53 43 42 32 22 10 8 3 3 8 11 7 3 5 5 5 7 6 5 5 5
26 24 22 23 26 31 35 36 36 40 32 40 43 39 45 43 56 55 60 59 57 54 47 43 37 24 15 7 6 1 4 13 10 6 3 4 3 6 5 5 4 2 3
28 26 28 23 26 31 33 35 34 40 39 41 45 47 50 58 57 58 56 50 44 41 35 34 29 16 6 6 5 2 7 15 12 5 3 5 2 9 7 3 3 1 2
27 25 27 28 30 35 38 40 36 39 45 45 52 51 50 57 58 53 42 37 31 28 25 30 25 11 5 6 5 6 12 15 17 13 8 5 8 11 10 6 4 3 4
27 25 27 30 28 31 38 40 42 39 43 46 49 49 52 54 48 40 37 33 27 20 27 23 23 11 7 5 8 11 17 18 16 14 9 7 3 9 7 4 6 2 4
32 37 35 39 41 41 41 45 46 44 47 51 51 50 47 38 36 31 28 20 19 24 26 21 19 7 0 4 8 14 21 20 19 14 12 10 4 2 5 4 4 3 1
36 41 40 35 35 36 39 43 45 49 47 41 37 31 30 31 30 25 16 14 19 23 24 19 15 2 3 6 7 11 18 23 18 16 16 12 6 3 5 7 0 1 1
30 33 36 38 41 43 45 42 38 31 27 24 25 25 26 26 23 19 14 18 21 22 23 17 15 3 4 6 5 12 23 22 21 20 19 11 5 3 6 5 2 1 3
36 36 34 32 31 28 25 22 19 20 22 23 23 21 20 20 20 17 14 16 17 19 21 15 14 5 3 6 4 12 24 20 14 19 13 8 5 4 5 5 3 2 2
20 21 21 19 17 16 14 16 18 20 20 19 19 20 20 19 16 12 12 10 13 15 20 15 11 6 4 5 3 7 23 20 18 15 11 8 8 3 4 4 4 4 2
10 9 9 9 11 13 15 16 16 17 16 18 19 21 18 17 14 11 9 11 13 11 13 16 13 4 4 2 3 3 10 21 21 17 17 11 9 5 3 3 6 6 5
10 11 11 12 14 15 15 16 17 18 19 19 21 22 19 16 15 12 9 12 12 11 11 13 13 10 6 5 5 2 4 14 20 19 17 16 17 12 10 7 7 8 7
11 11 12 12 12 12 12 12 12 14 16 19 20 20 18 14 14 11 12 11 11 10 14 12 14 13 11 7 11 10 7 8 19 24 21 20 18 17 14 11 9 9 9
11 9 7 6 6 8 11 13 14 16 19 17 14 15 18 16 15 14 15 14 14 18 19 15 19 20 15 14 11 12 14 14 16 17 23 24 22 22 20 17 17 12 8
4 2 2 5 6 6 9 12 13 15 14 15 18 17 17 16 17 20 23 26 32 30 31 31 29 28 25 19 17 16 19 21 21 20 21 23 25 25 26 22 21 17 11
7 8 8 9 9 9 10 10 15 17 17 21 22 20 19 21 21 21 25 27 29 30 32 30 27 27 30 28 24 22 22 25 27 29 25 25 24 28 27 25 23 21 15
8 8 10 11 12 12 12 13 13 15 17 20 21 24 26 30 32 32 31 30 33 36 35 35 30 30 30 32 31 28 27 26 31 30 29 28 25 26 29 28 25 22 20
14 15 15 16 16 14 14 15 16 16 18 19 20 22 23 26 29 32 33 39 40 42 40 37 36 34 34 33 33 35 33 32 32 33 33 32 29 28 28 27 28 26 23
11 12 13 13 14 14 16 17 18 19 21 22 21 20 22 21 20 24 28 33 36 40 43 43 42 40 39 37 37 35 36 39 37 37 36 38 32 29 30 30 28 29 26
12 14 14 13 14 15 17 18 19 20 23 25 26 28 27 29 28 30 34 34 34 36 37 41 43 41 42 41 39 38 38 39 41 41 38 39 39 33 30 32 29 30 31
14 14 15 18 17 18 20 21 22 24 25 28 30 31 32 34 35 36 40 38 39 40 39 38 40 42 40 43 43 42 40 41 41 45 45 40 42 37 32 34 33 34 33
14 15 16 17 19 20 22 23 26 28 28 30 32 33 35 37 40 41 43 42 45 47 42 40 38 40 42 44 44 45 46 43 42 44 47 47 43 42 38 36 40 40 40
15 17 20 23 23 25 26 26 26 27 29 33 36 38 39 39 40 43 46 50 51 54 51 45 40 39 41 43 46 46 47 49 48 44 47 49 49 48 46 41 43 45 44
19 20 21 23 24 26 28 30 31 32 36 37 39 42 44 47 49 50 52 53 55 59 56 55 48 40 40 42 45 47 48 50 50 53 45 50 54 51 51 49 46 46 49
23 23 23 26 28 29 30 31 33 34 37 39 40 42 45 48 50 51 54 57 58 62 61 64 57 50 42 42 42 46 49 50 51 53 55 48 52 57 57 55 51 49 50
Wind_Direction
224 218 241 244 228 230 236 215 225 260 278 287 287 294 295 299 294 292 300 292 305 293 308 315 321 321 316 305 297 296 307 232 129 108 83 59 58 25 20 34 47 49 48
235 241 230 223 230 213 227 244 275 279 292 279 281 291 289 298 290 288 300 301 305 315 317 322 319 318 310 285 271 259 273 162 136 132 107 46 45 37 5 17 40 34 39
249 245 243 245 254 252 254 265 275 280 278 280 282 283 292 293 294 293 306 317 315 317 318 315 310 309 302 244 230 221 210 150 135 116 121 84 18 6 2 333 42 3 359
261 251 246 251 253 256 257 272 284 277 288 286 283 284 277 293 306 309 312 313 316 321 327 321 312 306 286 206 191 205 181 150 141 139 91 40 336 357 358 309 311 325 3
259 234 246 250 247 259 266 273 280 277 272 271 278 286 291 303 306 306 309 312 321 330 336 332 315 294 214 191 208 165 171 159 175 160 129 95 319 341 330 264 261 296 297
240 253 252 263 264 262 274 269 273 271 280 279 290 301 301 301 301 307 311 313 318 330 337 335 317 294 216 194 185 162 165 173 167 158 164 136 170 298 338 270 241 269 289
246 253 267 260 271 274 273 282 288 291 292 294 296 295 297 299 306 311 310 327 328 332 342 336 330 324 61 161 173 176 172 174 176 175 182 176 197 44 33 11 254 226 238
260 263 275 275 275 278 279 281 282 286 289 291 293 295 300 305 305 301 313 333 335 332 341 344 341 329 103 141 162 190 181 180 189 185 193 182 179 108 43 8 40 162 227
263 268 272 274 277 277 278 282 287 289 291 295 299 304 304 302 295 297 291 331 339 343 348 349 352 319 77 102 157 177 168 175 202 194 199 174 178 86 50 13 38 79 258
270 272 273 276 279 283 286 284 286 292 294 299 304 304 306 298 298 304 315 340 345 349 349 1 351 355 87 96 115 177 178 173 188 216 207 206 219 116 61 46 347 39 257
273 274 279 282 282 282 281 288 293 294 300 301 301 308 307 294 289 295 301 333 347 349 349 8 5 355 7 36 63 190 199 195 196 228 224 193 206 185 74 43 17 318 250
270 282 291 294 291 294 292 294 297 301 302 302 304 302 306 290 275 304 305 334 346 340 358 13 16 14 340 18 90 129 201 207 214 217 227 227 224 249 261 319 348 324 260
283 285 282 285 289 291 288 292 300 304 305 305 307 301 303 289 272 289 300 311 329 334 354 2 6 5 348 321 275 226 221 218 225 231 233 241 251 258 261 283 310 306 270
292 302 297 299 294 295 300 307 305 309 311 304 304 304 303 284 263 273 295 318 324 319 333 330 344 341 329 295 275 240 241 229 220 237 238 250 261 265 267 281 287 298 271
302 309 322 334 330 330 325 326 322 316 310 309 320 317 301 294 278 269 286 296 296 304 314 312 311 305 312 305 284 242 248 248 238 233 246 249 253 259 265 267 269 283 268
292 269 309 313 318 331 329 319 320 316 312 314 322 318 318 302 286 281 277 288 295 297 297 299 297 294 295 294 297 270 248 247 248 238 241 247 249 254 256 258 261 270 257
345 336 332 327 322 319 312 299 302 306 306 312 313 303 293 296 291 291 289 286 290 292 294 292 291 287 284 284 287 286 266 250 246 252 246 244 250 248 250 253 253 258 252
34 39 35 32 22 14 8 358 348 340 333 323 316 310 303 300 300 295 291 290 288 287 290 288 286 285 279 274 275 274 275 265 253 251 255 248 251 255 247 247 245 249 241
53 49 43 38 34 31 18 16 10 8 7 1 353 342 332 318 307 304 294 289 288 288 285 283 281 277 276 273 265 266 264 265 262 253 254 254 252 252 243 239 238 241 233
39 27 22 18 16 16 13 10 9 7 5 4 3 356 352 342 337 335 320 309 301 292 287 284 279 277 271 270 268 262 257 257 256 257 256 253 252 251 248 233 233 229 231
15 11 15 15 13 9 2 1 0 356 354 356 358 0 355 354 352 349 350 340 327 313 301 290 279 273 272 270 265 263 260 252 250 253 252 251 251 252 243 233 231 231 229
19 14 12 15 10 2 358 357 357 356 353 352 350 353 352 351 353 350 352 351 346 338 322 305 290 275 269 268 267 264 256 257 253 247 248 249 248 245 244 228 226 227 229
8 6 3 5 5 0 355 352 352 351 350 351 347 347 346 346 348 350 350 347 347 344 335 319 302 287 269 263 262 262 262 257 253 253 246 243 245 245 238 238 225 222 220
344 347 350 348 349 345 344 341 338 340 345 347 345 346 346 343 344 346 345 346 346 345 339 331 314 294 282 267 262 261 259 259 259 245 249 243 240 243 239 232 233 226 221
333 338 338 333 330 330 331 331 329 336 341 343 343 342 342 342 344 343 343 345 346 344 342 337 325 304 285 274 263 256 256 255 257 261 246 243 242 238 241 239 228 229 226
323 324 325 322 320 321 321 321 327 326 332 333 336 337 338 339 340 340 340 341 342 345 343 341 333 321 297 280 269 260 254 251 251 254 259 249 239 241 235 239 237 227 227
Height
11019 11021 11019 11018 11020 11019 11017 11018 11014 11013 11010 11007 11004 11001 10997 10992 10987 10983 10978 10974 10965 10961 10955 10947 10941 10936 10935 10933 10935 10935 10933 10934 10935 10935 10934 10934 10934 10935 10935 10933 10932 10931 10930
11018 11020 11020 11018 11019 11020 11017 11016 11014 11008 11006 11005 11001 10998 10994 10990 10986 10980 10973 10967 10962 10952 10947 10942 10936 10931 10929 10930 10930 10931 10931 10932 10934 10934 10934 10934 10934 10934 10935 10934 10933 10932 10930
11018 11018 11017 11017 11016 11016 11015 11012 11010 11006 11004 11002 10999 10996 10991 10986 10980 10974 10967 10959 10955 10948 10943 10938 10931 10926 10926 10925 10926 10928 10929 10930 10933 10934 10933 10934 10935 10935 10935 10935 10933 10933 10932
11015 11015 11014 11014 11012 11012 11011 11009 11006 11002 11001 11000 10996 10991 10986 10980 10973 10968 10964 10957 10950 10945 10940 10935 10927 10924 10923 10923 10924 10926 10928 10929 10931 10933 10934 10934 10935 10935 10935 10935 10934 10934 10933
11011 11011 11010 11010 11009 11009 11007 11005 11003 11001 10999 10994 10990 10985 10979 10974 10968 10964 10959 10954 10948 10943 10939 10932 10926 10922 10920 10921 10922 10923 10926 10928 10928 10930 10932 10935 10936 10936 10935 10935 10935 10934 10933
11009 11009 11008 11007 11006 11005 11004 11002 11000 10998 10993 10988 10982 10977 10974 10970 10964 10960 10956 10951 10947 10943 10938 10933 10927 10922 10919 10919 10920 10920 10923 10926 10928 10930 10931 10932 10934 10936 10935 10934 10934 10933 10933
11004 11003 11003 11003 11001 11000 10997 10994 10992 10988 10985 10980 10976 10974 10971 10966 10962 10957 10953 10950 10946 10941 10937 10933 10928 10924 10921 10920 10921 10920 10923 10926 10927 10928 10929 10930 10934 10935 10934 10933 10933 10933 10932
11002 11002 11001 10998 10997 10995 10994 10991 10988 10984 10980 10975 10972 10969 10967 10962 10958 10955 10953 10948 10946 10942 10937 10933 10928 10925 10923 10921 10921 10921 10923 10927 10927 10927 10929 10931 10934 10935 10934 10933 10932 10932 10933
10998 10997 10996 10994 10993 10991 10988 10986 10983 10979 10975 10971 10969 10967 10963 10960 10956 10954 10952 10949 10945 10941 10937 10932 10930 10927 10926 10925 10923 10923 10925 10927 10928 10928 10929 10933 10934 10935 10934 10934 10933 10932 10933
10993 10992 10989 10988 10987 10985 10983 10981 10979 10975 10972 10969 10967 10965 10961 10957 10955 10955 10951 10949 10944 10940 10937 10933 10930 10929 10930 10928 10927 10926 10927 10927 10929 10929 10932 10934 10935 10935 10934 10933 10934 10932 10933
10987 10986 10985 10984 10982 10981 10980 10979 10976 10973 10970 10968 10965 10962 10959 10956 10954 10953 10951 10948 10944 10941 10939 10935 10933 10932 10934 10932 10930 10929 10929 10930 10930 10929 10932 10934 10935 10936 10935 10934 10934 10933 10932
10984 10983 10982 10981 10980 10979 10978 10977 10974 10970 10968 10965 10962 10960 10958 10955 10953 10952 10950 10947 10944 10942 10940 10937 10936 10934 10935 10933 10932 10929 10930 10932 10931 10931 10932 10934 10935 10934 10935 10934 10934 10933 10933
10983 10982 10980 10979 10978 10978 10976 10974 10971 10968 10966 10963 10960 10957 10957 10954 10951 10951 10950 10948 10947 10944 10941 10938 10937 10937 10936 10934 10932 10929 10929 10930 10930 10931 10932 10933 10935 10935 10934 10934 10933 10933 10933
10982 10980 10978 10977 10976 10975 10974 10972 10971 10968 10965 10962 10958 10954 10954 10954 10953 10951 10950 10947 10945 10944 10942 10940 10938 10938 10935 10935 10932 10930 10927 10928 10929 10929 10930 10931 10932 10932 10933 10933 10933 10932 10932
10980 10979 10977 10975 10974 10974 10973 10972 10970 10967 10965 10961 10959 10956 10952 10951 10952 10951 10949 10948 10945 10943 10942 10941 10937 10935 10934 10931 10929 10928 10927 10926 10926 10925 10926 10927 10928 10929 10930 10930 10931 10930 10929
10979 10977 10975 10974 10973 10972 10972 10969 10968 10966 10964 10962 10959 10957 10953 10952 10950 10949 10948 10945 10941 10939 10939 10936 10934 10931 10929 10928 10926 10924 10923 10922 10922 10923 10923 10924 10925 10925 10926 10926 10928 10928 10927
10978 10977 10975 10973 10972 10970 10970 10968 10966 10963 10960 10958 10956 10955 10953 10950 10948 10946 10945 10941 10937 10933 10930 10929 10929 10928 10924 10922 10921 10920 10919 10918 10918 10918 10920 10920 10921 10922 10921 10922 10924 10924 10924
10979 10978 10976 10974 10972 10970 10968 10967 10965 10963 10960 10958 10955 10952 10950 10948 10945 10943 10940 10936 10932 10929 10925 10922 10921 10921 10919 10917 10916 10915 10914 10913 10913 10913 10914 10915 10915 10916 10916 10917 10918 10920 10921
10981 10979 10977 10975 10973 10971 10969 10967 10964 10962 10960 10958 10954 10951 10948 10944 10940 10937 10934 10932 10928 10922 10919 10917 10915 10914 10911 10910 10910 10908 10907 10906 10907 10907 10908 10907 10909 10909 10909 10911 10912 10915 10917
10982 10980 10978 10976 10974 10971 10969 10966 10964 10962 10959 10957 10954 10952 10947 10943 10939 10934 10929 10924 10921 10916 10911 10908 10906 10904 10902 10901 10900 10900 10899 10899 10898 10900 10901 10903 10902 10902 10902 10904 10906 10908 10910
10981 10979 10977 10975 10972 10970 10968 10966 10964 10961 10958 10954 10951 10947 10942 10938 10934 10929 10924 10918 10912 10906 10903 10899 10897 10895 10892 10890 10890 10890 10889 10889 10890 10891 10892 10893 10895 10894 10894 10897 10901 10902 10903
10980 10979 10977 10974 10971 10969 10966 10964 10961 10959 10956 10952 10947 10942 10939 10934 10930 10924 10918 10912 10907 10901 10895 10890 10886 10884 10882 10878 10877 10878 10880 10879 10879 10880 10882 10883 10884 10886 10886 10889 10892 10894 10896
10979 10977 10975 10974 10971 10968 10965 10962 10958 10956 10953 10949 10945 10940 10936 10930 10925 10919 10913 10907 10901 10895 10888 10881 10876 10870 10871 10868 10866 10865 10866 10868 10868 10868 10870 10872 10874 10876 10878 10879 10879 10879 10883
10978 10975 10971 10969 10967 10965 10962 10959 10957 10955 10951 10945 10940 10935 10930 10926 10920 10914 10907 10900 10893 10887 10880 10872 10866 10860 10855 10855 10854 10854 10853 10853 10852 10858 10858 10860 10862 10865 10867 10868 10869 10870 10873
10975 10972 10969 10968 10967 10964 10960 10957 10953 10947 10943 10939 10934 10929 10923 10917 10911 10904 10898 10893 10886 10878 10870 10862 10855 10849 10843 10839 10839 10839 10839 10841 10840 10838 10846 10849 10850 10854 10855 10857 10859 10860 10863
10971 10970 10968 10966 10963 10961 10957 10954 10948 10942 10938 10935 10930 10925 10920 10914 10908 10901 10893 10886 10878 10869 10861 10853 10843 10834 10829 10824 10823 10823 10824 10825 10828 10828 10827 10834 10837 10839 10842 10844 10849 10850 10853